Location: �chemir�
(47.5500°N, 0.1667°W)
Time: 16:34:26
(UTC+02:00)

ISS - Pass Details

Date: 20 May 2021
Orbit: 419 x 422 km, 51.6° (Epoch: 25 June)

Event Time Altitude Azimuth Distance (km) Brightness Sun altitude
Rises 01:09:18 0° 289° (WNW) 2,374 0.5 -21.6°
Reaches altitude 10° 01:11:28 10° 296° (WNW) 1,509 -0.5 -21.7°
Maximum altitude 01:14:44 46° 11° (N) 574 -2.7 -21.8°
Enters shadow 01:15:39 36° 57° (ENE) 692 -2.5 -21.8°
